This is the latest recevied weather packets stored in our database for station/object K5GHS-1. If no packets are shown the sender has not sent any weather packets the latest 10 day(s).
| Time | Temp. | Humidity | Pressure | Rain* | Wind** | Luminosity | Snow |
|---|---|---|---|---|---|---|---|
| 1777995936 | 26.11° C | 73% | 1002.6 hPa | 0 mm | - | 326 W/m² | - |
| 1777995632 | 26.11° C | 73% | 1002.5 hPa | 0 mm | - | 349 W/m² | - |
| 1777995330 | 26.11° C | 74% | 1002.4 hPa | 0 mm | - | 517 W/m² | - |
| 1777995027 | 25.56° C | 76% | 1002.6 hPa | 0 mm | - | 592 W/m² | - |
| 1777994723 | 25° C | 77% | 1002.4 hPa | 0 mm | - | 234 W/m² | - |
| 1777994419 | 25° C | 77% | 1002.8 hPa | 0 mm | - | 216 W/m² | - |
| 1777994114 | 25° C | 77% | 1002.8 hPa | 0 mm | - | 175 W/m² | - |
| 1777993812 | 25° C | 77% | 1002.8 hPa | 0 mm | - | 150 W/m² | - |
| 1777993508 | 25° C | 76% | 1002.8 hPa | 0 mm | - | 146 W/m² | - |
| 1777993204 | 25.56° C | 76% | 1003 hPa | 0 mm | - | 158 W/m² | - |
| 1777992901 | 25.56° C | 75% | 1002.8 hPa | 0 mm | - | 295 W/m² | - |
| 1777992599 | 25.56° C | 75% | 1003 hPa | 0 mm | - | 272 W/m² | - |
| 1777992296 | 25.56° C | 76% | 1003.1 hPa | 0 mm | - | 287 W/m² | - |
| 1777991994 | 25° C | 77% | 1003 hPa | 0 mm | - | 321 W/m² | - |
| 1777991691 | 24.44° C | 80% | 1003 hPa | 0 mm | - | 254 W/m² | - |
| 1777991388 | 23.89° C | 80% | 1002.6 hPa | 0 mm | - | 183 W/m² | - |
| 1777991085 | 23.89° C | 81% | 1002.6 hPa | 0 mm | - | 226 W/m² | - |
| 1777990783 | 23.89° C | 81% | 1002.6 hPa | 0 mm | - | 185 W/m² | - |
| 1777990480 | 23.89° C | 81% | 1003 hPa | 0 mm | - | 150 W/m² | - |
| 1777989873 | 23.33° C | 82% | 1003 hPa | 0 mm | - | 133 W/m² | - |
| 1777989570 | 23.33° C | 82% | 1003.1 hPa | 0 mm | - | 108 W/m² | - |
| 1777989266 | 23.33° C | 82% | 1003.2 hPa | 0 mm | - | 114 W/m² | - |
| 1777988963 | 23.33° C | 83% | 1003.1 hPa | 0 mm | - | 105 W/m² | - |
| 1777988660 | 22.78° C | 83% | 1003.3 hPa | 0 mm | - | 83 W/m² | - |
| 1777988356 | 22.78° C | 83% | 1002.8 hPa | 0 mm | - | 65 W/m² | - |
* Rain latest hour (hover to see other rain measurements)
** Current wind speed in m/s (hover to see current wind gust speed)